Powrót do katalogu

CZ-3 R/B

AktywnyHEO
NORAD 20474·ROCKET BODY·🇨🇳 China

Wystrzelony Feb 4, 1990 z Xichang Satellite Launch Center

Loading…

Następne Przeloty (najbliższe 24 godziny)

TLE

ŚwieżeSource: Space-Track

Epoka: Sep 14, 2026, 07:24 UTC

1 20474U 90011B   26257.30853015  .00006397  00000-0  14560-2 0  9998
2 20474  30.4211   1.8442 6537680   3.5589 359.3949  3.26478557155756

Śledź CZ-3 R/B w czasie rzeczywistym z AllMySat

Download on the App Store